Время (UTC), дата Ветер
(°,м/с) 
Видим.   Явления Облачность Т
(°С)
Тd
(°С)
f(%) Тe
(°С)
Pmin
(гПа)
dP
(гПа)
Po
(мм)
O2
(г/м3)
Тmin Tmax R s Состояние
почвы
00 01.09.11 170 (Ю) >10 км    3/3 1000 м кучево-дожд. 
[Cb calv]
+17.9 +15.2 84 +28  1009.9  0.7  719  268           
03 01.09.11 300 (СЗ) >10 км  в посл. час ливневой дождь  6/3 1000 м кучево-дожд., верхняя 
[Cb calv|Ci fib]
+19.6 +16.5 82 +33  1009.3  -0.2  719  266           
06 01.09.11 290 (З) >10 км  {ливн. осадки}  8/3 300 м кучево-дожд., средняя, верхняя 
[Cb calv|Ac trans|Ci fib]
+23.3 +17.3 69 +38  1010  1.2  719  263  +17.9    0.0     
09 01.09.11 340 (С) >10 км    8/8 600 м кучево-дожд. 
[Cb calv]
+25.1 +16.5 59 +38  1009.5  719  262           
12 01.09.11 010 (С) >10 км    9/6 600 м кучево-дожд., верхняя 
[Cb calv|Ci fib]
+26 +15.9 54 +38  1008.2  -1.1  719  261           
15 01.09.11 020 (С) >10 км    8/4 600 м кучево-дожд., средняя, верхняя 
[Cb calv|Ac trans|Ci fib]
+25.2 +16.2 57 +37  1008.4  719  262    +27.7       
18 01.09.11 160 (Ю) >10 км  гроза, ливневой дождь  10/5 600 м кучево-дожд., средняя 
[Cb cap|Ac und]
+18.9 +17.4 91 +33  1011.5  1.9  720  267    +27.7       
21 01.09.11 230 (ЮЗ) >10 км  {гроза, ливн. осадки}  1/0 средняя 
[Ac trans]
+17.3 +15.6 90 +29  1010.9  -0.8  719  269           
00 02.09.11 270 (З) >10 км  {гроза, ливн. осадки}  ясно 
+17.9 +15.6 86 +29  1010.1  -0.7  719  268           
03 02.09.11 290 (З) >10 км    4/1 1000 м средняя 
[Sc|Ac trans]
+18.5 +15.1 81 +29  1010.5  0.4  719  268           
06 02.09.11 140 (ЮВ) >10 км    3/0 средняя, верхняя 
[Ac trans|Ci fib]
+23.3 +17.3 69 +38  1010.2  0.4  720  263  +17    16     
09 02.09.11 250 (З) >10 км    5/5 600 м 
[Cu hum]
+26.9 +12.2 40 +32  1008.8  -0.8  719  261           
12 02.09.11 270 (З) >10 км    6/5 1000 м верхняя 
[Cu hum|Ci fib]
+27.8 +11.5 36 +32  1008  -0.6  719  261           
15 02.09.11 290 (З) >10 км    6/5 1000 м верхняя 
[Cu hum|Ci fib]
+25.9 +12.3 43 +31  1008.3  719  262    +28.6       
18 02.09.11 280 (З) >10 км    ясно 
+22.1 +15 64 +32  1009.8  0.8  719  265    +28.6       
21 02.09.11 300 (СЗ) >10 км    н/о 
+19.7 +14.7 73 +29  1010.2  719  267           
00 03.09.11 280 (З) >10 км    ясно 
+16.8 +11.3 70 +21  1011.3  0.5  720  271           
03 03.09.11 280 (З) >10 км    4/0 средняя 
[Ac trans]
+15.4 +12.5 83 +21  1011.8  0.2  720  272           
06 03.09.11 250 (З) >10 км    8/0 средняя, верхняя 
[Ac trans|Ci fib]
+20.7 +11.1 54 +24  1011.4  0.5  720  268  +14.9         
09 03.09.11 290 (З) >10 км    10/0 средняя 
[Ac und]
+21.2 +12.6 58 +27  1011.5  0.1  720  267           
12 03.09.11 340 (С) >10 км    10/4 1000 м кучево-дожд., средняя 
[Cb calv|Ac trans]
+22.7 +12.6 53 +28  1011.3  720  265           
15 03.09.11 290 (З) >10 км    10/5 1500 м средняя 
[Sc|Ac und]
+21.3 +13.1 60 +28  1011.5  720  267    +24.1       
18 03.09.11 320 (СЗ) >10 км    10/0 средняя 
[Ac und]
+20 +11.7 59 +24  1012.7  721  268    +24.1       
21 03.09.11 340 (С) >10 км    8/0 средняя 
[Ac trans]
+18.1 +9.2 56 +20  1013.5  0.4  721  271           
00 04.09.11 340 (С) >10 км    6/0 средняя 
[Ac trans]
+16.3 +8.8 61 +18  1014.3  0.4  722  273           
03 04.09.11 330 (СЗ) >10 км    8/3 1000 м кучево-дожд., средняя 
[Cb cap|Ac trans]
+15.4 +8.4 63 +16  1014.5  0.4  722  274           
06 04.09.11 350 (С) >10 км    3/0 средняя 
[Ac trans]
+21 +10.5 51 +24  1014.1  0.5  722  268  +14.5         
09 04.09.11 120 (ЮВ) >10 км    8/3 600 м средняя 
[Cu hum|Ac trans]
+22.9 +7.4 37 +23  1013.3  -0.5  722  267           
12 04.09.11 010 (С) >10 км    10/5 1000 м кучево-дожд., средняя 
[Cb calv|Ac und]
+23.3 +4.3 29 +23  1012.4  -0.8  721  267           
15 04.09.11 300 (СЗ) 10 км  слаб. ливневой дождь  10/8 480 м кучево-дожд., средняя 
[Cb cap|Ac und]
+14.1 +12.2 88 +19  1017.5  3.4  724  275    +24.1       
18 04.09.11 270 (З) >10 км  {ливн. осадки}  3/0 средняя 
[Ac trans]
+11.4 +10.5 94 +14  1017.9  -0.1  724  278    +24.1     
21 04.09.11 280 (З) >10 км    3/0 средняя 
[Ac trans]
+12 +10 88 +14  1017.6  -0.2  723  277           
00 05.09.11 300 (СЗ) >10 км    6/0 средняя 
[Ac trans]
+12.8 +11.1 89 +16  1017.4  723  276           
03 05.09.11 260 (З) >10 км    8/3 1000 м кучево-дожд., средняя 
[Cb calv|Ac trans]
+12.3 +10.4 88 +14  1017.7  0.2  723  277           
06 05.09.11 290 (З) >10 км    6/3 300 м средняя 
[Sc diur, vesp|Ac trans]
+14.8 +11.4 80 +18  1017.9  0.7  724  275  +10.6    0.3     
09 05.09.11 300 (СЗ) >10 км    5/5 600 м 
[Cu med, cong]
+19.1 +9.5 54 +20  1017  0.1  724  271           
12 05.09.11 310 (СЗ) >10 км    6/6 600 м 
[Cu med, cong]
+19.3 +7.8 47 +20  1016.7  -0.3  724  271           
15 05.09.11 330 (СЗ) >10 км    3/1 600 м кучево-дожд., средняя 
[Cb calv|Ac trans]
+16.2 +9.9 66 +19  1017.8  0.5  724  274    +20.7       
18 05.09.11 320 (СЗ) >10 км    3/0 средняя 
[Ac trans]
+11.9 +9.8 87 +14  1019.7  1.1  725  278    +20.7       
21 05.09.11 250 (З) >10 км    ясно 
+9.3 +7 86 +9  1020.1  -0.2  725  281           
00 06.09.11 250 (З) >10 км    ясно 
+11.1 +7.2 77 +10  1019.4  -0.3  725  279           
03 06.09.11 270 (З) >10 км    3/0 верхняя 
[Ci fib]
+10.6 +6.9 78 +11  1019.2  -0.3  724  280           
06 06.09.11 250 (З) >10 км    ясно 
+18.1 +7.8 51 +18  1017.7  -0.3  724  272  +8.9         
09 06.09.11 280 (З) >10 км    8/8 800 м кучево-дожд. 
[Cb calv]
+20 +8.6 48 +20  1015.9  -1.3  723  270           
12 06.09.11 280 (З) >10 км    8/4 1000 м кучево-дожд., средняя 
[Cb calv|Ac trans]
+21 +6.5 39 +21  1014.9  -0.9  723  269           
15 06.09.11 320 (СЗ) >10 км  в посл. час гроза  6/4 1000 м кучево-дожд., средняя 
[Cb calv|Ac trans]
+16.6 +9.5 63 +18  1016  0.4  723  273    +21.1       
18 06.09.11 310 (СЗ) >10 км  {гроза}  ясно 
+14.4 +8.7 69 +15  1016.8  0.3  723  275    +21.1       
21 06.09.11 240 (ЮЗ) >10 км    ясно 
+9.2 +7.8 91 +9  1017.6  0.3  723  280           
00 07.09.11 310 (СЗ) >10 км    3/0 средняя 
[Ac trans]
+12.4 +7.6 73 +12  1016.2  -0.7  722  277           
03 07.09.11 320 (СЗ) >10 км    3/0 средняя 
[Ac trans]
+9.9 +7.5 85 +11  1016.1  -0.6  722  279           
06 07.09.11 280 (З) >10 км    3/1 600 м верхняя 
[Cu hum|Ci sp]
+17.7 +7.8 52 +18  1014.2  -0.4  722  272  +9.1         
09 07.09.11 270 (З) >10 км    6/6 600 м 
[Cu med, cong]
+20.4 +6.4 40 +20  1012.5  -1.1  721  269           
12 07.09.11 300 (СЗ) >10 км    6/6 600 м 
[Cu hum]
+20.2 +7 42 +20  1010.8  -1.1  720  269           
15 07.09.11 280 (З) >10 км    3/0 средняя, верхняя 
[Ac cuf|Ci fib]
+19.5 +6.4 42 +20  1010.4  -0.5  719  269    +21       
18 07.09.11 250 (З) >10 км    1/0 средняя 
[Ac trans]
+12.4 +7.9 74 +12  1012.1  0.4  719  276    +21       
21 07.09.11 250 (З) >10 км    ясно 
+14.3 +8.6 69 +14  1010.7  -1  719  274           
00 08.09.11 260 (З) >10 км    ясно 
+13.5 +7.9 69 +13  1010.1  -0.7  718  274           
03 08.09.11 240 (ЮЗ) >10 км    4/0 средняя 
[Ac trans]
+9.5 +7.1 85 +9  1010.9  718  278           
06 08.09.11 250 (З) >10 км    1/0 верхняя 
[Ci fib]
+19.8 +8.9 49 +21  1008.8  0.1  718  268  +9.5         
09 08.09.11 270 (З) >10 км    3/1 600 м верхняя 
[Cu hum|Ci fib]
+23.1 +6.4 34 +23  1007.5  -0.7  718  266           
12 08.09.11 270 (З) >10 км    1/0 верхняя 
[Ci fib]
+24.7 +4.7 27 +25  1006  -0.7  717  264           
15 08.09.11 280 (З) >10 км    8/0 верхняя 
[Ci fib]
+21.7 +5.5 35 +22  1006.5  717  267    +25       
18 08.09.11 290 (З) >10 км    6/0 средняя, верхняя 
[Ac trans|Ci fib]
+18.5 +6.1 44 +19  1007.5  0.4  717  270    +25       
21 08.09.11 280 (З) >10 км    4/0 верхняя 
[Ci fib]
+15.9 +7.7 58 +16  1007.3  -0.6  717  271           
00 09.09.11 300 (СЗ) >10 км    3/0 средняя 
[Ac trans]
+15 +10.5 74 +19  1007.1  -0.3  716  272           
03 09.09.11 270 (З) >10 км    6/0 средняя, верхняя 
[Ac trans|Ci fib]
+13.9 +10.7 81 +17  1007.3  716  273           
06 09.09.11 300 (СЗ) >10 км    9/0 верхняя 
[Ci fib]
+20.1 +10.2 53 +22  1005.7  -0.5  716  267  +12.9         
09 09.09.11 140 (ЮВ) >10 км    9/0 средняя, верхняя 
[Ac trans|Ci fib]
+24.7 +9.4 38 +26  1003.2  -1.6  715  262           
12 09.09.11 230 (ЮЗ) >10 км    9/0 средняя, верхняя 
[Ac trans|Ci fib]
+24.8 +5.8 29 +25  1002  -1.1  714  263           
15 09.09.11 290 (З) >10 км    10/5 600 м кучево-дожд., средняя 
[Cb calv|Ac und]
+20.4 +11.6 57 +25  1002.7  714  265    +26.1       
18 09.09.11 270 (З) 10  >10 км  слаб. ливневой дождь  10/6 600 м кучево-дожд., средняя 
[Cb cap|Ac und]
+15 +13.6 91 +22  1006  2.2  716  270    +26.1       
21 09.09.11 240 (ЮЗ) >10 км  слаб. ливневой дождь  8/5 180 м кучево-дожд., средняя 
[Cb cap|Ac trans]
+11.9 +10.6 92 +14  1008.6  1.9  717  275           
00 10.09.11 250 (З) >10 км  {ливн. осадки}  5/3 300 м кучево-дожд., средняя 
[Cb calv|Ac trans]
+12.4 +10.9 91 +14  1009.7  1.1  718  275           
03 10.09.11 280 (З) >10 км    6/4 200 м кучево-дожд., средняя 
[Cb calv|Ac trans]
+11.8 +10.1 89 +12  1011.7  1.7  719  276           
06 10.09.11 270 (З) >10 км    4/3 600 м средняя 
[Sc|Ac trans]
+14.9 +10.3 74 +16  1012.7  1.5  720  273  +11.8       
09 10.09.11 270 (З) >10 км    8/8 600 м 
[Sc]
+17.6 +9 57 +18  1012.9  0.6  721  271           
12 10.09.11 270 (З) >10 км    6/6 700 м 
[Sc]
+18 +8.7 55 +18  1013.9  722  271           
15 10.09.11 290 (З) >10 км    4/4 600 м 
[Sc]
+16.8 +8.1 56 +16  1014.6  0.5  722  273    +19.9       
18 10.09.11 280 (З) >10 км    4/3 800 м средняя 
[Sc|Ac trans]
+13.9 +8.7 71 +13  1017.2  723  276    +19.9       
21 10.09.11 270 (З) >10 км    ясно 
+12.3 +7.9 74 +11  1018.3  0.7  724  278           
00 11.09.11 270 (З) >10 км    1/0 средняя 
[Ac trans]
+10.7 +8.3 85 +10  1018.6  724  279           
03 11.09.11 230 (ЮЗ) >10 км    4/3 600 м средняя 
[Sc|Ac trans]
+9.5 +7.5 87 +9  1018.8  724  281           
06 11.09.11 260 (З) >10 км  {ливн. осадки}  8/4 600 м кучево-дожд., средняя 
[Cb cap|Ac As]
+15.3 +9.4 68 +16  1018  0.3  724  275  +9.5         
09 11.09.11 280 (З) >10 км    4/4 600 м 
[Cu hum]
+19.1 +7.5 47 +19  1015.4  -1.8  723  271           
12 11.09.11 270 (З) 10  >10 км    5/5 600 м 
[Cu med, cong]
+20.5 +7.6 43 +21  1013.9  -1.1  722  269           
15 11.09.11 270 (З) >10 км    6/3 600 м средняя 
[Sc|Ac As]
+17.1 +8.7 58 +16  1014.3  -0.3  722  272    +21.3       
18 11.09.11 270 (З) >10 км    8/5 1000 м средняя 
[Sc|Ac trans]
+16.2 +10.1 67 +18  1015.1  0.6  722  273    +21.3       
21 11.09.11 280 (З) >10 км  {ливн. осадки}  6/3 1000 м кучево-дожд., средняя 
[Cb cap|Ac trans]
+14.1 +11.5 84 +17  1015.1  -0.3  722  274           
00 12.09.11 270 (З) >10 км  {ливн. осадки}  8/4 300 м средняя 
[Sc diur, vesp|Ac trans]
+13 +11.6 91 +17  1015  -0.3  722  275           
03 12.09.11 010 (С) 30  >10 км    5/5 270 м средняя 
[St|Ac trans]
+12   1014.9  0.1  722             
06 12.09.11 270 (З) >10 км    3/3 300 м 
[Sc]
+16.5 +9.7 64 +18  1014.8  0.5  722  273  +12.5         
09 12.09.11 280 (З) >10 км    6/4 600 м верхняя 
[Cu hum|Ci fib]
+18.9 +7.9 49 +19  1013.6  -0.8  721  270           
12 12.09.11 280 (З) >10 км    8/3 600 м верхняя 
[Cu hum|Ci fib]
+20 +7.3 44 +20  1012.7  -0.7  721  269           
15 12.09.11 280 (З) >10 км    1/1 1000 м 
[Sc diur, vesp]
+17.9 +7 49 +18  1013.2  0.1  721  271    +21.5       
18 12.09.11 240 (ЮЗ) >10 км    1/0 средняя 
[Ac trans]
+11.2 +7.1 76 +11  1015.4  0.9  722  278    +21.5       
21 12.09.11 260 (З) >10 км    ясно 
+10 +7.1 82 +10  1015.9  0.3  722  279           
00 13.09.11 250 (З) >10 км    н/о 
+8.3 +6.7 90 +8  1016.3  0.1  722  281           
03 13.09.11 250 (З) >10 км    1/0 средняя 
[Ac trans]
+9.8 +8.7 93 +9  1016.5  0.5  722  279           
06 13.09.11 260 (З) >10 км    3/3 600 м 
[Cu hum]
+17 +7.3 53 +17  1015.8  0.5  723  273  +8.1         
09 13.09.11 280 (З) >10 км    3/0 верхняя 
[Ci fib]
+20.3 +3.9 34 +20  1014.7  -0.5  722  270           
12 13.09.11 270 (З) >10 км    6/0 верхняя 
[Ci fib]
+22.4 +4.1 30 +22  1013.6  -0.6  722  268           
15 13.09.11 270 (З) >10 км    6/0 верхняя 
[Ci fib]
+20.3 +7.3 43 +20  1013.9  -0.1  722  269    +22.6       
18 13.09.11 250 (З) >10 км    1/0 верхняя 
[Ci fib]
+16.6 +8.8 60 +17  1014.8  0.2  722  273    +22.6       
21 13.09.11 250 (З) >10 км    ясно 
+16.5 +9.6 64 +18  1014.7  0.1  722  273           
00 14.09.11 240 (ЮЗ) >10 км    ясно 
+16.5 +9.6 64 +17  1014.7  -0.4  722  272           
03 14.09.11 250 (З) >10 км    3/1 600 м верхняя 
[Sc diur, vesp|Ci fib]
+16.1 +10.5 69 +19  1014.7  0.4  722  273           
06 14.09.11 260 (З) >10 км    4/3 600 м средняя 
[Sc|Ac trans]
+20.1 +13 64 +26  1014.3  0.3  722  268  +16.1         
09 14.09.11 270 (З) >10 км    3/1 600 м средняя 
[Sc|Ac trans]
+24 +14 54 +32  1014  0.4  722  265           
12 14.09.11 300 (СЗ) >10 км    4/4 600 м 
[Cu hum]
+25.1 +13.3 48 +32  1014  0.2  723  264           
15 14.09.11 330 (СЗ) >10 км    3/0 средняя 
[Ac trans]
+23.2 +12.9 52 +29  1014.8  0.4  723  266    +25.8       
18 14.09.11 330 (СЗ) >10 км    ясно 
+18.3 +12.7 70 +26  1016.7  0.9  724  271    +25.8       
21 14.09.11 110 (В) >10 км    ясно 
+16.2 +12.2 77 +22  1016.8  -0.2  723  273           
00 15.09.11 150 (ЮВ) >10 км    ясно 
+16.9 +11.6 71 +21  1016.3  -0.4  723  272           
03 15.09.11 150 (ЮВ) >10 км    ясно 
+15.5 +11.6 78 +20  1016.1  -0.4  723  273           
06 15.09.11 120 (ЮВ) >10 км    ясно 
+21.7 +12.9 57 +28  1015  723  267  +13.3         
09 15.09.11 080 (В) >10 км    3/1 600 м верхняя 
[Cu hum|Ci fib]
+25.6 +12.3 44 +31  1013.1  -1.1  722  264           
12 15.09.11 050 (СВ) >10 км    9/1 600 м средняя, верхняя 
[Cu hum|Ac trans|Ci fib]
+27.3 +11.4 37 +31  1011.9  -1.1  721  262           
15 15.09.11 050 (СВ) >10 км    5/0 средняя, верхняя 
[Ac trans|Ci fib]
+23.8 +11 45 +27  1012.3  -0.2  721  265    +27.4       
21 15.09.11 070 (В) >10 км    3/0 средняя 
[Ac trans]
+17.7 +10.9 64 +22  1013.3  -0.3  721  271           
00 16.09.11 200 (Ю) >10 км    1/0 средняя 
[Ac trans]
+15 +10.7 75 +19  1013.4  -0.4  721  273           
03 16.09.11 230 (ЮЗ) >10 км    5/3 600 м средняя 
[Sc|Ac trans]
+16.7 +11.7 72 +22  1013.1  721  271           
06 16.09.11 240 (ЮЗ) >10 км    6/6 1000 м 
[Sc]
+23.5 +13.9 55 +31  1012.3  0.5  721  265  +14.2         
09 16.09.11 290 (З) >10 км    3/3 1000 м 
[Sc]
+25.4 +12.8 46 +31  1011.7  -0.3  721  263           
12 16.09.11 290 (З) >10 км    6/6 600 м 
[Cu hum]
+26.2 +10.1 36 +28  1011.3  -0.3  721  263           
15 16.09.11 320 (СЗ) >10 км    3/0 средняя 
[Ac trans]
+23.8 +10.4 43 +26  1011.7  721  265    +26.6       
18 16.09.11 290 (З) >10 км    3/0 средняя 
[Ac trans]
+20 +11.3 57 +24  1013.1  0.8  721  269    +26.6       
21 16.09.11 260 (З) >10 км    ясно 
+18.7 +14.4 76 +28  1013.1  -0.2  721  269           
00 17.09.11 260 (З) >10 км    3/0 средняя 
[Ac trans]
+17.6 +15.5 87 +29  1013.4  0.1  721  270           
03 17.09.11 270 (З) 10 км    10/8 330 м кучево-дожд., средняя 
[Cb calv|Ac und]
+17.2 +16.1 93 +29  1014.1  0.6  722  270           
06 17.09.11 270 (З) >10 км    4/3 300 м верхняя 
[Sc|Ci fib]
+18.5 +13.8 74 +26  1015  0.6  722  269  +16.8         
09 17.09.11 310 (СЗ) >10 км    3/3 600 м 
[Cu hum]
+21.2 +8.3 43 +21  1015.1  0.5  723  269           
12 17.09.11 320 (СЗ) >10 км    1/1 600 м 
[Cu hum]
+22.4 +5.7 34 +22  1014.6  -0.4  722  268           
15 17.09.11 320 (СЗ) >10 км    3/0 средняя 
[Ac trans]
+20.1 +4.5 36 +20  1015.6  0.6  723  271    +22.7       
18 17.09.11 320 (СЗ) >10 км    5/0 верхняя 
[Ci fib]
+16 +5.3 49 +16  1017.9  1.5  724  275    +22.7       
21 17.09.11 010 (С) >10 км    ясно 
+13.6 +4.8 55 +14  1019.1  0.6  725  277           
00 18.09.11 070 (В) >10 км    ясно 
+10.4 +4.9 69 +12  1019.9  0.2  725  280           
03 18.09.11 080 (В) >10 км    6/0 средняя 
[Ac trans]
+11 +5.1 67 +12  1019.7  0.1  725  280           
06 18.09.11 100 (В) >10 км    4/0 средняя 
[Ac trans]
+16.9 +4.5 44 +17  1019.1  0.5  725  274  +9.6         
09 18.09.11 130 (ЮВ) >10 км    3/0 средняя 
[Ac trans]
+20.9 +3.7 32 +21  1017.9  -0.4  725  271           
12 18.09.11 020 (С) >10 км    4/3 600 м средняя, верхняя 
[Cu hum|Ac trans|Ci fib]
+22.2 +4.1 31 +22  1016.9  -0.8  724  269           
15 18.09.11 030 (СВ) >10 км    4/0 средняя 
[Ac cuf]
+19.9 +3.8 34 +21  1017.1  -0.2  724  271    +22.9       
18 18.09.11 030 (СВ) >10 км    3/0 средняя 
[Ac trans]
+14.7 +1.6 41 +15  1019.3  -0.2  725  277    +22.9       
21 18.09.11 090 (В) >10 км    6/0 средняя 
[Ac trans]
+11.8 +1.8 50 +12  1020  0.1  725  280           
00 19.09.11 020 (С) >10 км    4/0 средняя 
[Ac trans]
+11.6 +0.9 48 +12  1019.7  -0.3  725  280           
03 19.09.11 060 (СВ) >10 км    4/0 средняя 
[Ac trans]
+9.4 +2.1 60 +9  1020.7  0.6  725  282           
06 19.09.11 090 (В) >10 км    3/0 средняя 
[Ac trans]
+16.3 +4.1 44 +16  1020  0.6  726  275  +9.4         
09 19.09.11 090 (В) >10 км    1/0 средняя 
[Ac trans]
+21.4 +4.6 33 +21  1018.2  -0.9  725  270           
12 19.09.11 070 (В) >10 км    ясно 
+22.8 +3.8 29 +23  1016.7  -0.9  724  269           
15 19.09.11 070 (В) >10 км    1/0 средняя 
[Ac trans]
+19.3 +3.2 34 +19  1017.3  0.1  724  272    +23       
18 19.09.11 070 (В) >10 км    1/0 средняя 
[Ac trans]
+15.4 +3.4 45 +15  1019  0.9  725  276    +23       
21 19.09.11 070 (В) >10 км    ясно 
+12.2 +3.5 55 +11  1019.8  0.2  725  279           
00 20.09.11 070 (В) >10 км    ясно 
+10.5 +3.9 64 +9  1020.1  725  281           
03 20.09.11 080 (В) >10 км    ясно 
+8.4 +4.3 75 +7  1021.1  725  283           
06 20.09.11 090 (В) >10 км    ясно 
+15.9 +7.1 56 +15  1021  1.2  726  275  +8.4         
09 20.09.11 090 (В) >10 км    1/1 600 м 
[Cu hum]
+20.6 +6.5 40 +21  1020.1  726  271           
12 20.09.11 090 (В) >10 км    ясно 
+21.9 +4.7 33 +22  1019.2  -0.7  726  270           
15 20.09.11 080 (В) >10 км    ясно 
+18.2 +4 39 +18  1019.8  0.1  726  273    +22.3       
18 20.09.11 080 (В) >10 км    ясно 
+14.8 +3.2 46 +14  1021  0.5  726  277    +22.3       
21 20.09.11 090 (В) >10 км    ясно 
+10.2 +2.4 58 +9  1021.7  -0.2  726  282           
00 21.09.11 070 (В) >10 км    ясно 
+9.2 +3.1 66 +8  1021.1  -0.7  725  282           
03 21.09.11 070 (В) >10 км    ясно 
+7.5 +4.7 82 +6  1021.1  -0.3  725  284           
06 21.09.11 110 (В) >10 км    ясно 
+16.7 +8.7 59 +17  1019.5  0.2  725  274  +7.5         
09 21.09.11 100 (В) >10 км    н/о 
+21.6 +5.1 34 +22  1017.2  -1.4  724  270           
12 21.09.11 100 (В) >10 км    ясно 
+22.8 +2.6 27 +23  1015.5  -1.4  723  268           
15 21.09.11 100 (В) >10 км    ясно 
+17.9 +1.8 34 +18  1015.7  -0.6  723  273    +23.2       
18 21.09.11 100 (В) >10 км    ясно 
+13.7 +1 42 +14  1016.5  723  277    +23.2       
21 21.09.11 120 (ЮВ) >10 км    ясно 
+13.5 +3 49 +14  1015.6  -0.9  722  277           
00 22.09.11 100 (В) >10 км    ясно 
+10.7 +3.2 60 +11  1015.7  -0.4  722  279           
03 22.09.11 080 (В) >10 км    ясно 
+9.5 +6.4 81 +10  1016  -0.1  722  280           
06 22.09.11 110 (В) >10 км    ясно 
+17.2 +8.6 57 +17  1014.9  0.4  722  272           
09 22.09.11 100 (В) >10 км    н/о 
+21.5 +5.9 36 +22  1013.2  -0.9  721  268           
12 22.09.11 100 (В) >10 км    ясно 
+23.4 +6.7 34 +23  1011.8  -1  721  266           
15 22.09.11 080 (В) >10 км    6/0 средняя, верхняя 
[Ac trans|Ci]
+19.5 +7.4 45 +20  1012.2  -0.3  720  270    +23.4       
18 22.09.11 080 (В) >10 км    ясно 
+16.7 +8.8 60 +17  1012.7  0.1  721  272    +23.4       
21 22.09.11 100 (В) >10 км    ясно 
+14 +9.6 75 +14  1012.1  -1.1  720  274           
00 23.09.11 080 (В) >10 км    ясно 
+12.4 +10.3 87 +14  1012.2  -0.2  720  275           
03 23.09.11 080 (В) >10 км    4/0 верхняя 
[Ci fib]
+12.1 +10.3 89 +13  1012.1  0.1  719  276           
06 23.09.11 110 (В) 11  >10 км    8/6 360 м верхняя 
[Sc|Ci fib]
+15.6 +11.2 75 +18  1012.3  0.8  720  272  +11.6         
09 23.09.11 110 (В) 10  >10 км    8/3 600 м верхняя 
[Sc|Ci fib]
+20.3 +10.3 53 +23  1010.5  -0.9  719  268           
12 23.09.11 110 (В) >10 км    8/0 верхняя 
[Ci fib]
+21.6 +9.1 45 +22  1009.5  -0.7  719  267           
15 23.09.11 110 (В) >10 км    8/3 1000 м верхняя 
[Sc|Ci fib]
+18.9 +9.4 54 +20  1010.6  0.5  719  269    +22.1       
18 23.09.11 110 (В) >10 км    4/0 средняя, верхняя 
[Ac trans|Ci fib]
+13.8 +9.7 76 +16  1011.5  719  274    +22.1       
21 23.09.11 100 (В) >10 км    6/0 средняя 
[Ac trans]
+14.6 +10.4 76 +17  1010.8  -0.5  719  273           
00 24.09.11 120 (ЮВ) >10 км    8/0 средняя 
[Ac As]
+14.1 +11 82 +18  1010.6  -0.3  719  273           
03 24.09.11 130 (ЮВ) >10 км  {ливн. осадки}  4/3 1000 м кучево-дожд., средняя 
[Cb cap|Ac trans]
+12.6 +11.6 94 +16  1010.8  719  275           
06 24.09.11 120 (ЮВ) >10 км  {ливн. осадки}  3/3 1000 м средняя 
[Sc|Ac trans]
+17.4 +13.7 79 +25  1010.1  0.2  719  269  +12.6         
09 24.09.11 130 (ЮВ) >10 км    5/1 1000 м средняя 
[Sc|Ac trans]
+23 +12.8 53 +29  1008.6  -0.5  718  264           
12 24.09.11 330 (СЗ) >10 км    8/3 600 м средняя 
[Cu hum|Ac trans]
+24.4 +11.3 44 +28  1007.6  -0.7  718  263           
15 24.09.11 270 (З) >10 км    10/4 1000 м кучево-дожд., средняя 
[Cb calv|Ac und]
+20.9 +11.2 54 +25  1009  0.7  718  267    +24.9       
18 24.09.11 250 (З) >10 км  слаб. ливневой дождь  10/8 1000 м кучево-дожд., средняя 
[Cb cap|Ac und]
+16.1 +14.2 89 +24  1010.9  719  271    +24.9       
21 24.09.11 280 (З) >10 км  {ливн. осадки}  10/6 1000 м кучево-дожд., средняя 
[Cb calv|Ac und]
+16.2 +13.4 83 +23  1010.7  -0.1  719  271           
00 25.09.11 260 (З) >10 км  слаб. ливневой дождь  10/8 1000 м кучево-дожд., средняя 
[Cb cap|Ac und]
+15.3 +13.5 89 +22  1010.8  0.1  719  272           
03 25.09.11 270 (З) н/о    н/о 
+14.3 +13.2 93 +21  1011.8  0.1  720  273           
06 25.09.11 290 (З) >10 км  {ливн. осадки}  3/3 300 м 
[Sc]
+15.7 +11.5 76 +19  1013.4  1.8  721  272  +14.3       
09 25.09.11 270 (З) 11  >10 км    6/3 300 м верхняя 
[Sc|Ci]
+16.4 +9.5 64 +16  1014.4  722  273           
12 25.09.11 280 (З) >10 км    5/5 600 м 
[Sc]
+18.5 +4.2 39 +18  1015.3  1.1  723  272           
15 25.09.11 300 (СЗ) >10 км    3/0 верхняя 
[Ci fib]
+15.9 +1.3 37 +15  1018.1  2.1  724  275    +18.8       
18 25.09.11 300 (СЗ) >10 км    ясно 
+12.7 +2.7 51 +13  1021.1  2.3  726  279    +18.8       
21 25.09.11 310 (СЗ) >10 км    ясно 
+10.1 +2 57 +10  1023.1  1.4  727  282           
00 26.09.11 290 (З) >10 км    ясно 
+9.6 +0.7 54 +10  1023.5  0.3  727  283           
03 26.09.11 290 (З) >10 км    3/0 средняя 
[Ac trans]
+9 +1 57 +8  1024.2  0.5  728  284           
06 26.09.11 280 (З) >10 км    3/0 средняя 
[Ac trans]
+15.5 +0.5 36 +16  1023.9  0.5  728  278  +8.9         
09 26.09.11 280 (З) >10 км    ясно 
+17.7 +0.1 30 +18  1023.4  0.1  728  275           
12 26.09.11 280 (З) >10 км    ясно 
+18.7 +0.7 30 +19  1022.8  -0.4  728  274           
15 26.09.11 290 (З) >10 км    ясно 
+15.6 +0.2 35 +16  1024.1  0.7  728  278           
18 26.09.11 010 (С) >10 км    ясно 
+12.1 +2 50 +12  1026.6  1.7  730  281           
21 26.09.11 010 (С) >10 км    ясно 
+7.6 +1.8 67 +9  1028.1  0.6  730  286           
00 27.09.11 130 (ЮВ) >10 км    ясно 
+7 +1.2 67 +8  1028  -0.2  730  287           
03 27.09.11 210 (ЮЗ) >10 км    ясно 
+6.9 +1.5 69 +8  1028.1  0.1  730  287           
06 27.09.11 010 (С) >10 км    ясно 
+14.8 +2.1 42 +15  1027.7  731  279           
09 27.09.11 320 (СЗ) >10 км    ясно 
+17.3 +0.9 33 +18  1026.7  -0.5  731  277           
12 27.09.11 360 (С) >10 км    ясно 
+18 +0.1 30 +19  1025.5  -1.1  730  276           
15 27.09.11 340 (С) >10 км    ясно 
+15.1 +0.5 37 +16  1026.3  0.2  730  279    +18.4       
18 27.09.11 010 (С) >10 км    ясно 
+11.9 +0.8 46 +12  1027.4  0.5  730  282           
21 27.09.11 160 (Ю) >10 км    ясно 
+9 +0.1 54 +10  1027.8  -0.2  730  285           
00 28.09.11 190 (Ю) >10 км    ясно 
+5.8 +0.5 69 +6  1027.7  -0.7  730  288           
03 28.09.11 220 (ЮЗ) >10 км    3/0 верхняя 
[Ci fib]
+7.6 +0 59 +8  1026.7  -0.6  729  286           
06 28.09.11 160 (Ю) >10 км    3/0 верхняя 
[Ci fib]
+16.2 +1.1 36 +17  1024.6  -0.4  729  277  +5         
09 28.09.11 120 (ЮВ) >10 км    3/0 верхняя 
[Ci fib]
+20 +0.5 27 +20  1022.2  -1.6  728  273           
12 28.09.11 290 (З) >10 км    ясно 
+22 +0.9 25 +22  1019.8  -1.6  726  271           
15 28.09.11 320 (СЗ) >10 км    ясно 
+18.2 +1.3 32 +19  1019.6  -0.8  726  274    +22.3       
18 28.09.11 300 (СЗ) >10 км    ясно 
+15.6 +1.5 38 +16  1019.6  -0.5  725  276    +22.3       
21 28.09.11 270 (З) >10 км    ясно 
+13.7 +2.7 47 +13  1018.6  -1.3  724  277           
00 29.09.11 240 (ЮЗ) >10 км    ясно 
+10.7 +3.9 63 +10  1017.9  -1.2  723  280           
03 29.09.11 250 (З) >10 км    3/0 верхняя 
[Ci fib]
+10.4 +5.1 70 +9  1017  -0.9  723  280           
06 29.09.11 240 (ЮЗ) >10 км    3/0 средняя 
[Ac trans]
+17.1 +6.7 50 +17  1014.5  -1.1  722  273  +9.2         
09 29.09.11 270 (З) >10 км    8/3 600 м средняя 
[Sc|Ac trans]
+18.7 +5.3 41 +19  1012.6  -1.5  721  271           
12 29.09.11 300 (СЗ) >10 км    8/4 600 м кучево-дожд., верхняя 
[Cb calv|Ci fib]
+19.5 +7.2 45 +20  1010.6  -1.8  719  269           
15 29.09.11 260 (З) >10 км    8/5 300 м кучево-дожд., средняя 
[Cb calv|Ac trans]
+13.1 +9.9 81 +15  1012.2  0.4  720  275    +21.1       
18 29.09.11 350 (С) >10 км    10/6 570 м кучево-дожд., средняя 
[Cb calv|Ac und]
+11 +9.4 90 +12  1013  0.4  720  277    +21.1       
21 29.09.11 270 (З) >10 км  слаб. ливневой дождь  10/6 540 м кучево-дожд., средняя 
[Cb cap|Ac und]
+8.7 +7.8 94 +9  1013.2  -0.2  720  280           
00 30.09.11 280 (З) >10 км  в посл. час ливневой дождь  10/6 600 м кучево-дожд., средняя 
[Cb calv|Ac und]
+8.3 +7.3 93 +8  1013.4  0.2  720  280           
03 30.09.11 260 (З) >10 км  слаб. ливневой дождь  10/5 600 м кучево-дожд., средняя 
[Cb calv|Ac und]
+7.8 +7.1 95 +7  1013.1  0.2  720  281           
06 30.09.11 300 (СЗ) 10 км  слаб. ливневой дождь  10/8 210 м кучево-дожд., средняя 
[Cb cap|Ac und]
+7.8 +7 95 +7  1014.4  1.2  720  281  +7.8       
09 30.09.11 310 (СЗ) >10 км  {ливн. осадки}  9/8 630 м кучево-дожд., средняя 
[Cb calv|Ac trans]
+10 +6.1 77 +9  1015.1  721  279           
12 30.09.11 260 (З) >10 км  {ливн. осадки}  8/5 900 м кучево-дожд., средняя 
[Cb calv|Ac trans]
+12.8 +4.9 59 +12  1015.1  0.5  722  277           
15 30.09.11 350 (С) >10 км    8/5 1000 м кучево-дожд., средняя 
[Cb calv|Ac trans]
+9.2 +5.9 80 +9  1017.2  1.3  723  281    +13       
18 30.09.11 290 (З) >10 км  {ливн. осадки}  8/4 1000 м кучево-дожд., средняя 
[Cb calv|Ac trans]
+8.3 +5.4 82 +8  1018.5  1.1  723  282    +13     
21 30.09.11 290 (З) >10 км  {ливн. осадки}  ясно 
+6.2 +4.8 91 +6  1019.1  0.1  724  284           
00 01.10.11 270 (З) >10 км  {ливн. осадки}  ясно 
+4.6 +3.4 92 +3  1019.1  -0.3  723  286           
03 01.10.11 280 (З) >10 км    3/0 средняя 
[Ac trans]
+5.8 +3.8 87 +5  1018.7  -0.2  723  285           
06 01.10.11 270 (З) >10 км    3/3 300 м 
[Sc]
+9.9 +5.6 75 +9  1017.3  -0.6  723  280  +3.4    0.3     
09 01.10.11 270 (З) >10 км    8/8 800 м кучево-дожд. 
[Cb cap]
+11.8 +4.1 59 +11  1015.8  -1.1  722  278           
12 01.10.11 270 (З) >10 км    3/3 1000 м 
[Sc diur, vesp]
+13.1 +2.2 47 +12  1013.4  -2  720  277           
15 01.10.11 270 (З) >10 км    8/0 верхняя 
[Ci]
+9.9 +3.8 66 +8  1013.2  -0.8  720  279    +13.7       
18 01.10.11 250 (З) 10  >10 км    8/0 средняя, верхняя 
[Ac trans|Ci fib]
+10.3 +4.9 69 +8  1011.7  -1.3  719  278    +13.7       
21 01.10.11 250 (З) 11{22}  >10 км  {ливн. осадки}  10/4 600 м кучево-дожд., средняя 
[Cb cap|Ac und]
+11.2 +7.7 79 +9  1009.9  -1.5  718  276           
00 02.10.11 240 (ЮЗ) 8{19}  >10 км    5/1 600 м кучево-дожд., средняя 
[Cb calv|Ac trans]
+12.2 +5.1 62 +11  1007.1  -2.5  716  275           
03 02.10.11 280 (З) 9{19}  4000 м  ливневой дождь  10/6 300 м кучево-дожд., средняя 
[Cb cap|Ac und]
+9.8 +7 83 +7  1006.8  -0.7  715  277           
06 02.10.11 300 (СЗ) 4000 м  ливневой дождь  10/8 400 м кучево-дожд., средняя 
[Cb cap|Ac und]
+9.3 +8.3 94 +8    1.2  716  278  +9.2       
Время (UTC), дата Ветер
(°,м/с) 
Видим.   Явления Облачность Т
(°С)
Тd
(°С)
f(%) Тe
(°С)
Pmin
(гПа)
dP
(гПа)
Po
(мм)
O2
(г/м3)
Тmin Tmax R s Состояние
почвы